Location: Invercargill
(46.4000°S, 168.3500°E)
Time: 10:59:17
(UTC+12:00)

NOAA 12 - Pass Details

Date: 14 May 2021
Orbit: 796 x 815 km, 98.5° (Epoch: 15 June)

Event Time Altitude Azimuth Distance (km) Brightness Sun altitude
Rises 18:59:25 0° 165° (SSE) 3,380 7.1 -16.2°
Reaches altitude 10° 19:01:48 10° 163° (SSE) 2,439 6.3 -16.6°
Maximum altitude 19:07:13 77° 77° (ENE) 846 4.0 -17.5°
Drops below altitude 10° 19:12:32 10° 350° (N) 2,397 6.8 -18.4°
Sets 19:14:51 0° 348° (NNW) 3,317 7.6 -18.8°
